390  
NZUS99 KSGF 280007  
HRRSGF  
 
HOURLY WEATHER  
NATIONAL WEATHER SERVICE SPRINGFIELD MO  
600 PM CST WED JAN 27 2021  
   
.....SGF CWA...
 
 
 
CITY SKY/WX TMP DP RH WIND PRES REMARKS  
SPRINGFIELD CLOUDY 28 22 78 N12 30.42R WCI 18  
6HR MIN TEMP: 28; 6HR MAX TEMP: 31;  
 
JOPLIN CLOUDY 30 22 72 NW10 30.47R WCI 21  
6HR MIN TEMP: 30; 6HR MAX TEMP: 31;  
 
WEST PLAINS CLOUDY 30 22 72 NW8 30.40R WCI 22  
6HR MIN TEMP: 30; 6HR MAX TEMP: 34;  
 
ROLLA CLOUDY 29 24 82 N8 30.42R WCI 21  
6HR MIN TEMP: 29; 6HR MAX TEMP: 31; 6HR PCP: TRACE;  
 
OSAGE BEACH CLOUDY 28 23 81 VRB5 30.46R WCI 23  
BRANSON CLOUDY 30 25 80 NW10 30.43R WCI 21  
   
.....SURROUNDING SGF CWA...
 
 
 
CITY SKY/WX TMP DP RH WIND PRES REMARKS  
CHANUTE CLOUDY 31 21 66 NW5 30.48R WCI 26  
PARSONS N/A N/A N/A N/A MISG 30.49R  
COFFEYVILLE CLOUDY 30 21 69 N9 30.48R WCI 22  
EMPORIA CLOUDY 27 19 72 NW7 30.46R WCI 19  
GROVE OK CLOUDY 32 23 69 NW8 30.48R WCI 25  
ROGERS AR CLOUDY 28 23 81 NW8 30.44R WCI 20  
SILOAM SPRINGS CLOUDY 29 24 82 N14 30.45R WCI 18  
HARRISON AR CLOUDY 30 23 75 NW6 30.41R WCI 24  
NEAR YELLVILLE CLOUDY 33 25 72 NW8 30.45R WCI 26  
   
.....KANSAS AND MISSOURI...
 
 
 
CITY SKY/WX TMP DP RH WIND PRES REMARKS  
KANSAS CTY INT CLOUDY 27 21 78 NE3 30.48R  
DOWNTOWN KC CLOUDY 27 21 78 N6 30.49R WCI 20  
COLUMBIA MOCLDY 24 21 88 N6 30.46R WCI 17  
SEDALIA CLOUDY 26 21 81 N8 30.48R WCI 18  
ST JOSEPH CLOUDY 24 18 77 N7 30.51R WCI 16  
ST LOUIS FLURRIES 27 22 81 N7 30.44R WCI 19  
SPIRIT OF STL MOCLDY 28 23 81 NW10 30.45R WCI 19  
KIRKSVILLE CLEAR 20 12 71 N3 30.48R  
WICHITA PTCLDY 25 17 72 N9 30.47R WCI 15  
TOPEKA CLOUDY 27 19 72 N5 30.50R WCI 22  
OLATHE CLOUDY 27 22 81 N5 30.47R WCI 22  
   
.....TENNESSEE...
 
 
 
CITY SKY/WX TMP DP RH WIND PRES REMARKS  
MEMPHIS CLOUDY 37 31 78 N13 30.36R WCI 29  
NASHVILLE CLOUDY 36 30 79 NW10 30.25R WCI 28  
   
.....ARKANSAS....
 
 
 
CITY SKY/WX TMP DP RH WIND PRES REMARKS  
FAYETTEVILLE CLOUDY 29 23 78 N10G17 30.43R WCI 20  
FT SMITH CLOUDY 35 24 64 NW10 30.46R WCI 27  
LITTLE ROCK MOCLDY 40 32 73 N10 30.39R WCI 33  
   
.....OKLAHOMA....
 
 
 
CITY SKY/WX TMP DP RH WIND PRES REMARKS  
TULSA CLOUDY 32 22 66 N12 30.47R WCI 23  
PONCA CITY CLEAR 28 18 66 N8 30.48R WCI 20  
MCALESTER CLEAR 36 25 64 NE8 30.45R WCI 30  
OKLAHOMA CITY CLEAR 32 19 58 N10 30.46R WCI 24  
   
.....IOWA.........
 
 
 
CITY SKY/WX TMP DP RH WIND PRES REMARKS  
DES MOINES PTCLDY 18 6 59 NE7 30.52R WCI 9  
QUAD CITIES CLEAR 20 8 60 NW8 30.48R WCI 10  
   
.....ILLINOIS.....
 
 
 
CITY SKY/WX TMP DP RH WIND PRES REMARKS  
QUINCY CLEAR 16 13 88 N7 30.46R WCI 6  
CHICAGO MOCLDY 22 11 62 NW13 30.41R WCI 10  
 
 
 
CLICK HERE TO GO TO PREVIOUS BULLETINS.

The Nexlab MO Page
The Nexlab KS Page Main Text Page